Site menu:

About:

weather.olc.net provides weather information from NOAA, the National Weather Service, Weather Underground, and current weather data collected outside of Orangeburg, SC near Great Branch.


Today's Forecast

Today

Today: Sunny, with a high near 53. Breezy, with a northwest wind 18 to 21 mph, with gusts as high as 33 mph.
Sunny and
Breezy

High: 53 °F

Tonight

Tonight: Clear, with a low around 26. Northwest wind 7 to 14 mph.
Clear

Low: 26 °F

Weather Almanac

Historical Data
High Temp
Normal: 57°F
Record: 76°F (2017)
Low Temp
Normal: 35°F
Record: 10°F (1985)
Historical data from Orangeburg Airport provided by Weather UnderGround
Astronomical Info

Sunrise:
07:26 am

Sunset:
05:44 pm
Civil Twilight    
Dawn:
06:59 am
Dusk:
06:10 pm
Moonset: 06:50 am
Moonrise: 05:20 pm
Full MoonJan 21
Last Qtr.Jan 27
New MoonFeb 04
First Qtr.Feb 12
Current PhaseFull Moon 100%

Regional Weather Roundup
Issued by NWS Columbia, SC


000
ASUS42 KCAE 201610
RWRCAE
REGIONAL WEATHER ROUNDUP
NATIONAL WEATHER SERVICE COLUMBIA SC
1100 AM EST SUN JAN 20 2019

NOTE: "FAIR" INDICATES FEW OR NO CLOUDS BELOW 12,000 FEET WITH NO
SIGNIFICANT WEATHER AND/OR OBSTRUCTIONS TO VISIBILITY.

NOT ALL STATIONS ARE QUALITY CONTROLLED BY THE NATIONAL
WEATHER SERVICE. USE DATA WITH CAUTION...ESPECIALLY
DEWPOINT OBSERVATIONS.

SCZ001>056-GAZ040-063>065-077-201700-
...UPSTATE SOUTH CAROLINA...

CITY           SKY/WX    TMP DP  RH WIND       PRES   REMARKS
ANDERSON       FAIR      45  27  49 W16G22    29.77R
LIBERTY        PTSUNNY   47  31  52 NE7       29.74R
SPARTANBURG    FAIR      39  25  56 NW17G24   29.75R WCI  30
CLEMSON        FAIR      43  27  53 NW14G24   29.77R
GREENVILLE     FAIR      43  26  51 N21G29    29.77R
GREENWOOD      FAIR      47  32  56 W9G18     29.76R
GREER          FAIR      40  25  55 NW9G29    29.77R WCI  34
ROCK HILL      CLOUDY    44  31  60 NW16G23   29.69R
CHESTER        FAIR      45  30  57 NW12G17   29.70R HAZE
LAURENS        FAIR      43  28  56 N20G33    29.74R


...CENTRAL SOUTH CAROLINA...

CITY           SKY/WX    TMP DP  RH WIND       PRES   REMARKS
COLUMBIA APT   FAIR      48  36  63 W23G30    29.71R
COLUMBIA OWENS CLOUDY    47  33  58 W16G22    29.72R
MCENTIRE ANGB  CLOUDY    46  35  64 W13G21    29.70R
ORANGEBURG     FAIR      47  33  58 W15G28    29.73R
SUMTER SHAW    CLOUDY    47  35  65 W13G20    29.67R
NEWBERRY       PTSUNNY   46  34  61 NW12G18   29.76R
AIKEN          PTSUNNY   45  32  61 W14G25    29.77R
BARNWELL       FAIR      45  32  61 W15G26    29.76R
MANNING        CLOUDY    46  36  66 NW10G17   29.69R
CAMDEN         CLOUDY    46  36  66 W13G23    29.67R
LANCASTER      CLOUDY    46  32  57 W9        29.68R
WINNSBORO      PTSUNNY   46  36  66 NW13G20   29.68R


...EASTERN AND COASTAL SOUTH CAROLINA...

CITY           SKY/WX    TMP DP  RH WIND       PRES   REMARKS
MYRTLE BEACH   CLOUDY    56  46  69 W16G23    29.62R
N MYRTLE BCH   CLOUDY    55  44  66 W16G22    29.58R
CONWAY         FAIR      52  41  66 SW13G25   29.62R
MARION         CLOUDY    52  41  66 W18G26    29.61R
FLORENCE       CLOUDY    49  40  71 W16G24    29.63R
DARLINGTON     CLOUDY    48  41  76 W18G24    29.64R
CHARLESTON APT PTSUNNY   50  37  61 W21G29    29.69R
MOUNT PLEASANT CLOUDY    52  45  76 W13G26    29.68R
WALTERBORO     CLOUDY    45  34  65 W18G29    29.75R
BEAUFORT       PTSUNNY   48  37  65 W20G35    29.76R
HILTON HEAD    CLOUDY    46  37  71 W14G32    29.76R


...EASTERN GEORGIA...

CITY           SKY/WX    TMP DP  RH WIND       PRES   REMARKS
AUGUSTA BUSH F PTSUNNY   45  31  58 W17G30    29.80R
AUGUSTA DANIEL FAIR      45  29  53 W16G26    29.79R
THOMSON        FAIR      42  29  58 N23G31    29.87R
CLAXTON        CLOUDY    43  32  65 W25G35    29.86R
SYLVANIA       CLOUDY    44  34  69 NW17G26   29.81R
STATESBORO     CLOUDY    41  33  72 NW16G22   29.84R
SAVANNAH       CLOUDY    45  34  65 W17G32    29.81R


...SOUTHERN NORTH CAROLINA...

CITY           SKY/WX    TMP DP  RH WIND       PRES   REMARKS
CHARLOTTE      PTSUNNY   44  29  55 NW20G30   29.68R
MONROE         CLOUDY    47  31  53 NW14G20   29.65R
ASHEVILLE      CLOUDY    27  19  72 N18G33    29.79R WCI  14

$$